Back to catalog

STARLINK-38057

AliveCommunicationsSSO
NORAD 69978·PAYLOAD·🇺🇸 United States

Launched Jul 11, 2026 from Vandenberg Space Force Base

Loading…

Next Passes (next 24 hours)

TLE

FreshSource: CelesTrak SupGP

Epoch: Sep 14, 2026, 22:34 UTC

1 69978C 26159D   26257.94076389  .00079390  00000+0  14629-2 0  2578
2 69978  97.2849  99.6776 0001325 102.0301 295.4725 15.49144689    18

Track STARLINK-38057 in real time with AllMySat

Download on the App Store